Terug naar catalogus

DELTA 1 DEB

ActiefPO
NORAD 21686·DEBRIS·🇺🇸 United States

Gelanceerd Jun 12, 1975 vanaf Vandenberg Space Force Base

Loading…

Volgende Passages (komende 24 uur)

TLE

VersSource: Space-Track

Epoch: Sep 14, 2026, 07:35 UTC

1 21686U 75052JN  26257.31613390  .00003692  00000-0  14861-2 0  9992
2 21686  99.9934 294.0272 0137230  55.9612 305.4506 14.23784735767500

Volg DELTA 1 DEB in realtime met AllMySat

Download on the App Store